Time,TemperatureF,DewpointF,PressureIn,WindDirection,WindDirectionDegrees,WindSpeedMPH,WindSpeedGustMPH,Humidity,HourlyPrecipIn,Conditions,Clouds,dailyrainin,SoftwareType,DateUTC
2013-01-31 00:00:00,71.0,-99.9,29.95,SSW,192,19.0,23.0,-999,-99.99,,,-99.99,,2013-01-31 05:00:00,
2013-01-31 00:04:00,71.0,-99.9,29.96,SSW,194,17.0,21.0,-999,-99.99,,,-99.99,,2013-01-31 05:04:00,
2013-01-31 00:11:00,71.0,-99.9,29.96,SSW,192,18.0,21.0,-999,-99.99,,,-99.99,,2013-01-31 05:11:00,
2013-01-31 00:22:00,71.0,-99.9,29.95,South,190,20.0,25.0,-999,-99.99,,,-99.99,,2013-01-31 05:22:00,
2013-01-31 00:32:00,71.0,-99.9,29.95,South,190,20.0,25.0,-999,-99.99,,,-99.99,,2013-01-31 05:32:00,
2013-01-31 00:42:00,71.0,-99.9,29.95,SSW,192,19.0,23.0,-999,-99.99,,,-99.99,,2013-01-31 05:42:00,
2013-01-31 00:52:00,71.0,-99.9,29.95,SSW,192,19.0,23.0,-999,-99.99,,,-99.99,,2013-01-31 05:52:00,
2013-01-31 09:03:00,59.0,-99.9,30.15,NNW,348,11.0,15.0,-999,-99.99,,,-99.99,,2013-01-31 14:03:00,
2013-01-31 09:12:00,59.0,-99.9,30.15,NNW,341,9.0,14.0,-999,-99.99,,,-99.99,,2013-01-31 14:12:00,
2013-01-31 09:22:00,59.0,-99.9,30.16,NNW,348,8.0,13.0,-999,-99.99,,,-99.99,,2013-01-31 14:22:00,
2013-01-31 09:32:00,59.0,-99.9,30.16,NNW,345,11.0,18.0,-999,-99.99,,,-99.99,,2013-01-31 14:32:00,
2013-01-31 09:42:00,59.0,-99.9,30.17,North,350,10.0,16.0,-999,-99.99,,,-99.99,,2013-01-31 14:42:00,
2013-01-31 09:52:00,58.0,-99.9,30.18,North,350,11.0,18.0,-999,-99.99,,,-99.99,,2013-01-31 14:52:00,
2013-01-31 10:03:00,58.0,-99.9,30.18,NNW,343,8.0,15.0,-999,-99.99,,,-99.99,,2013-01-31 15:03:00,
2013-01-31 10:12:00,58.0,-99.9,30.18,NNW,338,12.0,17.0,-999,-99.99,,,-99.99,,2013-01-31 15:12:00,
2013-01-31 10:23:00,58.0,-99.9,30.19,NNW,338,9.0,16.0,-999,-99.99,,,-99.99,,2013-01-31 15:23:00,
2013-01-31 10:32:00,58.0,-99.9,30.19,NNW,342,11.0,16.0,-999,-99.99,,,-99.99,,2013-01-31 15:32:00,
2013-01-31 10:42:00,58.0,-99.9,30.19,North,349,8.0,13.0,-999,-99.99,,,-99.99,,2013-01-31 15:42:00,
2013-01-31 10:52:00,58.0,-99.9,30.20,North,-999,10.0,14.0,-999,-99.99,,,-99.99,,2013-01-31 15:52:00,
2013-01-31 11:04:00,59.0,-99.9,30.19,NNW,346,6.0,13.0,-999,-99.99,,,-99.99,,2013-01-31 16:04:00,
2013-01-31 11:13:00,58.0,-99.9,30.20,North,353,9.0,18.0,-999,-99.99,,,-99.99,,2013-01-31 16:13:00,
2013-01-31 11:22:00,59.0,-99.9,30.20,North,359,10.0,15.0,-999,-99.99,,,-99.99,,2013-01-31 16:22:00,
2013-01-31 11:33:00,58.0,-99.9,30.20,North,351,13.0,18.0,-999,-99.99,,,-99.99,,2013-01-31 16:33:00,
2013-01-31 11:42:00,58.0,-99.9,30.20,North,-999,11.0,17.0,-999,-99.99,,,-99.99,,2013-01-31 16:42:00,
2013-01-31 11:52:00,58.0,-99.9,30.20,North,4,8.0,15.0,-999,-99.99,,,-99.99,,2013-01-31 16:52:00,
2013-01-31 12:03:00,58.0,-99.9,30.20,North,10,13.0,16.0,-999,-99.99,,,-99.99,,2013-01-31 17:03:00,
2013-01-31 12:13:00,57.0,-99.9,30.20,North,360,9.0,16.0,-999,-99.99,,,-99.99,,2013-01-31 17:13:00,
2013-01-31 12:23:00,56.0,-99.9,30.21,North,4,11.0,19.0,-999,-99.99,,,-99.99,,2013-01-31 17:23:00,
2013-01-31 12:32:00,58.0,-99.9,30.20,North,4,9.0,17.0,-999,-99.99,,,-99.99,,2013-01-31 17:32:00,
2013-01-31 12:44:00,57.0,-99.9,30.20,North,353,11.0,17.0,-999,-99.99,,,-99.99,,2013-01-31 17:44:00,
2013-01-31 12:53:00,57.0,-99.9,30.20,NNW,340,11.0,17.0,-999,-99.99,,,-99.99,,2013-01-31 17:53:00,
2013-01-31 13:03:00,57.0,-99.9,30.20,North,356,11.0,14.0,-999,-99.99,,,-99.99,,2013-01-31 18:03:00,
2013-01-31 13:13:00,58.0,-99.9,30.20,NNW,348,11.0,15.0,-999,-99.99,,,-99.99,,2013-01-31 18:13:00,
2013-01-31 13:22:00,57.0,-99.9,30.20,North,5,13.0,18.0,-999,-99.99,,,-99.99,,2013-01-31 18:22:00,
2013-01-31 13:32:00,57.0,-99.9,30.20,NNW,333,11.0,15.0,-999,-99.99,,,-99.99,,2013-01-31 18:32:00,
2013-01-31 13:43:00,58.0,-99.9,30.20,NNW,344,8.0,17.0,-999,-99.99,,,-99.99,,2013-01-31 18:43:00,
2013-01-31 13:52:00,58.0,-99.9,30.19,North,2,10.0,16.0,-999,-99.99,,,-99.99,,2013-01-31 18:52:00,
2013-01-31 14:03:00,58.0,-99.9,30.19,North,354,10.0,16.0,-999,-99.99,,,-99.99,,2013-01-31 19:03:00,
2013-01-31 14:13:00,58.0,-99.9,30.19,North,359,9.0,14.0,-999,-99.99,,,-99.99,,2013-01-31 19:13:00,
2013-01-31 14:22:00,58.0,-99.9,30.19,NNE,13,9.0,16.0,-999,-99.99,,,-99.99,,2013-01-31 19:22:00,
2013-01-31 14:33:00,58.0,-99.9,30.19,NNW,327,11.0,16.0,-999,-99.99,,,-99.99,,2013-01-31 19:33:00,
2013-01-31 14:43:00,58.0,-99.9,30.19,NNW,338,13.0,19.0,-999,-99.99,,,-99.99,,2013-01-31 19:43:00,
2013-01-31 14:52:00,57.0,-99.9,30.19,NW,315,12.0,17.0,-999,-99.99,,,-99.99,,2013-01-31 19:52:00,
2013-01-31 15:03:00,58.0,-99.9,30.19,NW,307,12.0,20.0,-999,-99.99,,,-99.99,,2013-01-31 20:03:00,
2013-01-31 15:12:00,57.0,-99.9,30.19,NNW,327,13.0,21.0,-999,-99.99,,,-99.99,,2013-01-31 20:12:00,
2013-01-31 15:22:00,58.0,-99.9,30.19,NNW,333,12.0,16.0,-999,-99.99,,,-99.99,,2013-01-31 20:22:00,
2013-01-31 15:32:00,58.0,-99.9,30.19,NNW,336,10.0,15.0,-999,-99.99,,,-99.99,,2013-01-31 20:32:00,
2013-01-31 15:42:00,58.0,-99.9,30.19,NNW,343,11.0,17.0,-999,-99.99,,,-99.99,,2013-01-31 20:42:00,
2013-01-31 15:52:00,58.0,-99.9,30.20,North,355,12.0,19.0,-999,-99.99,,,-99.99,,2013-01-31 20:52:00,
2013-01-31 16:02:00,58.0,-99.9,30.20,NNW,337,10.0,16.0,-999,-99.99,,,-99.99,,2013-01-31 21:02:00,
2013-01-31 16:13:00,58.0,-99.9,30.20,NNW,340,11.0,17.0,-999,-99.99,,,-99.99,,2013-01-31 21:13:00,
2013-01-31 16:22:00,59.0,-99.9,30.20,North,359,10.0,16.0,-999,-99.99,,,-99.99,,2013-01-31 21:22:00,
2013-01-31 16:32:00,58.0,-99.9,30.19,North,358,10.0,18.0,-999,-99.99,,,-99.99,,2013-01-31 21:32:00,
2013-01-31 16:42:00,58.0,-99.9,30.20,NNW,346,12.0,17.0,-999,-99.99,,,-99.99,,2013-01-31 21:42:00,
2013-01-31 16:52:00,58.0,-99.9,30.20,North,357,12.0,17.0,-999,-99.99,,,-99.99,,2013-01-31 21:52:00,
2013-01-31 17:03:00,58.0,-99.9,30.20,NNW,338,11.0,18.0,-999,-99.99,,,-99.99,,2013-01-31 22:03:00,
2013-01-31 17:11:00,58.0,-99.9,30.20,NNW,348,11.0,15.0,-999,-99.99,,,-99.99,,2013-01-31 22:11:00,
2013-01-31 17:22:00,57.0,-99.9,30.20,NNW,337,11.0,16.0,-999,-99.99,,,-99.99,,2013-01-31 22:22:00,
2013-01-31 17:33:00,58.0,-99.9,30.20,NNW,347,9.0,14.0,-999,-99.99,,,-99.99,,2013-01-31 22:33:00,
2013-01-31 17:42:00,57.0,-99.9,30.21,NNW,343,11.0,17.0,-999,-99.99,,,-99.99,,2013-01-31 22:42:00,
2013-01-31 17:52:00,57.0,-99.9,30.21,NNW,346,11.0,18.0,-999,-99.99,,,-99.99,,2013-01-31 22:52:00,
2013-01-31 18:03:00,57.0,-99.9,30.21,NNW,344,8.0,15.0,-999,-99.99,,,-99.99,,2013-01-31 23:03:00,
2013-01-31 18:12:00,57.0,-99.9,30.20,NNW,338,7.0,11.0,-999,-99.99,,,-99.99,,2013-01-31 23:12:00,
2013-01-31 18:22:00,56.0,-99.9,30.21,North,357,9.0,13.0,-999,-99.99,,,-99.99,,2013-01-31 23:22:00,
2013-01-31 18:32:00,56.0,-99.9,30.21,NNW,342,7.0,12.0,-999,-99.99,,,-99.99,,2013-01-31 23:32:00,
2013-01-31 18:43:00,56.0,-99.9,30.21,NNW,346,9.0,13.0,-999,-99.99,,,-99.99,,2013-01-31 23:43:00,
2013-01-31 18:52:00,55.0,-99.9,30.21,NNW,333,7.0,11.0,-999,-99.99,,,-99.99,,2013-01-31 23:52:00,
2013-01-31 19:02:00,55.0,-99.9,30.22,NNW,343,6.0,9.0,-999,-99.99,,,-99.99,,2013-02-01 00:02:00,
2013-01-31 19:12:00,55.0,-99.9,30.22,NNW,346,4.0,11.0,-999,-99.99,,,-99.99,,2013-02-01 00:12:00,
2013-01-31 19:22:00,55.0,-99.9,30.22,NNW,347,11.0,14.0,-999,-99.99,,,-99.99,,2013-02-01 00:22:00,
2013-01-31 19:32:00,55.0,-99.9,30.23,NNW,337,8.0,11.0,-999,-99.99,,,-99.99,,2013-02-01 00:32:00,
2013-01-31 19:42:00,55.0,-99.9,30.23,NNW,337,6.0,13.0,-999,-99.99,,,-99.99,,2013-02-01 00:42:00,
2013-01-31 19:52:00,54.0,-99.9,30.23,NNW,333,9.0,11.0,-999,-99.99,,,-99.99,,2013-02-01 00:52:00,
2013-01-31 20:01:00,54.0,-99.9,30.24,NNW,338,5.0,9.0,-999,-99.99,,,-99.99,,2013-02-01 01:01:00,
2013-01-31 20:12:00,54.0,-99.9,30.24,NNW,335,4.0,10.0,-999,-99.99,,,-99.99,,2013-02-01 01:12:00,
2013-01-31 20:22:00,54.0,-99.9,30.24,North,349,5.0,8.0,-999,-99.99,,,-99.99,,2013-02-01 01:22:00,
2013-01-31 20:32:00,54.0,-99.9,30.25,North,350,6.0,10.0,-999,-99.99,,,-99.99,,2013-02-01 01:32:00,
2013-01-31 20:42:00,54.0,-99.9,30.25,NNW,341,6.0,8.0,-999,-99.99,,,-99.99,,2013-02-01 01:42:00,
2013-01-31 20:52:00,54.0,-99.9,30.25,NNW,341,5.0,8.0,-999,-99.99,,,-99.99,,2013-02-01 01:52:00,
2013-01-31 21:02:00,54.0,-99.9,30.25,NNW,347,6.0,9.0,-999,-99.99,,,-99.99,,2013-02-01 02:02:00,
2013-01-31 21:12:00,54.0,-99.9,30.25,NNW,336,6.0,9.0,-999,-99.99,,,-99.99,,2013-02-01 02:12:00,
2013-01-31 21:22:00,54.0,-99.9,30.25,NNW,336,5.0,9.0,-999,-99.99,,,-99.99,,2013-02-01 02:22:00,
2013-01-31 21:32:00,54.0,-99.9,30.26,NNW,332,6.0,9.0,-999,-99.99,,,-99.99,,2013-02-01 02:32:00,
2013-01-31 21:42:00,54.0,-99.9,30.26,NNW,339,5.0,9.0,-999,-99.99,,,-99.99,,2013-02-01 02:42:00,
2013-01-31 21:52:00,54.0,-99.9,30.26,NNW,339,7.0,11.0,-999,-99.99,,,-99.99,,2013-02-01 02:52:00,
2013-01-31 22:02:00,54.0,-99.9,30.26,NNW,334,9.0,11.0,-999,-99.99,,,-99.99,,2013-02-01 03:02:00,
2013-01-31 22:12:00,54.0,-99.9,30.26,NNW,339,7.0,12.0,-999,-99.99,,,-99.99,,2013-02-01 03:12:00,
2013-01-31 22:22:00,54.0,-99.9,30.26,NNW,339,7.0,10.0,-999,-99.99,,,-99.99,,2013-02-01 03:22:00,
2013-01-31 22:33:00,54.0,-99.9,30.26,NNW,344,6.0,11.0,-999,-99.99,,,-99.99,,2013-02-01 03:33:00,
2013-01-31 22:42:00,54.0,-99.9,30.26,NNW,343,6.0,11.0,-999,-99.99,,,-99.99,,2013-02-01 03:42:00,
2013-01-31 22:52:00,54.0,-99.9,30.26,NNW,341,6.0,10.0,-999,-99.99,,,-99.99,,2013-02-01 03:52:00,
2013-01-31 23:02:00,54.0,-99.9,30.26,North,350,7.0,11.0,-999,-99.99,,,-99.99,,2013-02-01 04:02:00,
2013-01-31 23:11:00,54.0,-99.9,30.26,NNW,340,8.0,13.0,-999,-99.99,,,-99.99,,2013-02-01 04:11:00,
2013-01-31 23:22:00,54.0,-99.9,30.27,NNW,346,7.0,13.0,-999,-99.99,,,-99.99,,2013-02-01 04:22:00,
2013-01-31 23:32:00,54.0,-99.9,30.27,NNW,343,7.0,12.0,-999,-99.99,,,-99.99,,2013-02-01 04:32:00,
2013-01-31 23:42:00,54.0,-99.9,30.27,NNW,341,8.0,13.0,-999,-99.99,,,-99.99,,2013-02-01 04:42:00,
2013-01-31 23:52:00,54.0,-99.9,30.27,NNW,347,6.0,10.0,-999,-99.99,,,-99.99,,2013-02-01 04:52:00,